Regional Weather Roundup
Issued by NWS Raleigh/Durham, NC

Home | Current Version | Previous Version | Text Only | Print | Product List | Glossary On
Versions: 1 2 3 4 5 6 7 8 9 10 11 12 13 14 15 16 17 18 19 20 21 22 23 24 25 26 27 28 29 30 31 32 33 34 35 36 37 38 39 40 41 42 43 44 45 46 47 48 49 50
000
ASUS42 KRAH 021610
RWRRAH
NORTH CAROLINA WEATHER ROUNDUP
NATIONAL WEATHER SERVICE RALEIGH NC
1200 PM EDT SUN AUG 02 2015

NOTE: "FAIR" INDICATES FEW OR NO CLOUDS BELOW 12,000 FEET WITH NO
SIGNIFICANT WEATHER AND/OR OBSTRUCTIONS TO VISIBILITY.

NCZ001-053-055-056-065-067-021700-
WESTERN NORTH CAROLINA

CITY           SKY/WX    TMP DP  RH WIND       PRES   REMARKS
ASHEVILLE      SUNNY     79  60  52 CALM      30.08S
JEFFERSON      CLOUDY    72  52  49 NE5       30.13F
MORGANTON      SUNNY     83  57  40 N5        30.07F
HICKORY        SUNNY     84  56  38 VRB3      30.03S
RUTHERFORDTON  SUNNY     84  61  44 SE6       30.03F
MOUNT AIRY     MOSUNNY   83  57  41 NW8       30.06F
BOONE          PTSUNNY   72  57  58 CALM      30.14S
$$

NCZ021-022-025-041-071-084-088-021700-
CENTRAL NORTH CAROLINA

CITY           SKY/WX    TMP DP  RH WIND       PRES   REMARKS
CHARLOTTE      MOSUNNY   87  56  34 N7G20     30.01S
GREENSBORO     PTSUNNY   84  55  36 VRB6      30.02S
WINSTON-SALEM  MOSUNNY   82  55  39 VRB3      30.04S
RALEIGH-DURHAM PTSUNNY   84  61  45 NE6       30.00R
FORT BRAGG     SUNNY     90  57  32 NE6       29.96S
FAYETTEVILLE   SUNNY     91  59  33 NE10      29.96S
BURLINGTON     PTSUNNY   84  56  38 VRB3      30.01S
LAURINBURG     SUNNY     91  56  30 VRB5      29.97S
$$

NCZ011-015-027-028-043-044-047-080-103-021700-
NORTHEASTERN NORTH CAROLINA

CITY           SKY/WX    TMP DP  RH WIND       PRES   REMARKS
ROCKY MT-WILSO SUNNY     89  60  37 MISG      29.97R
GREENVILLE     SUNNY     90  66  45 W3        29.97S
WASHINGTON     SUNNY     88  68  51 CALM      29.95S
ELIZABETH CITY SUNNY     89  69  51 S5        29.94R
MANTEO         SUNNY     87  67  50 SW5       29.95R
CAPE HATTERAS  SUNNY     85  73  67 S7        29.95S
$$

NCZ078-087-090-091-093-098-101-021700-
SOUTHEASTERN NORTH CAROLINA

CITY           SKY/WX    TMP DP  RH WIND       PRES   REMARKS
LUMBERTON      SUNNY     91  60  35 E8        29.96R
GOLDSBORO      SUNNY     89  63  40 NW7       29.94S
KINSTON        SUNNY     88  63  42 NE7       29.96S
KENANSVILLE    SUNNY     88  59  37 CALM      29.97S
NEW BERN       SUNNY     91  71  51 VRB3      29.96R HX  97
CHERRY POINT   MOSUNNY   90  74  59 NE5       29.95S HX  99
BEAUFORT       SUNNY     85  78  80 S7        29.95S HX  96
JACKSONVILLE   SUNNY     90  72  55 VRB6      29.94S HX  97
WILMINGTON     SUNNY     91  72  53 CALM      29.95R HX  98
$$



USA.gov is the U.S. government's official web portal to all federal, state and local government web resources and services.